Location: Newark
(42.7336°N, 84.5467°W)
Time: 12:01:10
(UTC+00:00)

ISS - Visible Passes

Search period start: 20 September 2020 00:00
Search period end: 30 September 2020 00:00
Orbit: 419 x 420 km, 51.6° (Epoch: 20 September)

Date Brightness Start Highest point End Pass type
(mag) Time Alt. Az. Time Alt. Az. Time Alt. Az.
20 Sep -3.3 01:02:48 10° WSW 01:06:08 59° NNW 01:08:05 22° NE visible
20 Sep -0.2 02:40:51 10° WNW 02:41:04 11° WNW 02:41:04 11° WNW visible
21 Sep -3.8 00:15:21 10° SW 00:18:43 87° SE 00:22:07 10° ENE visible
21 Sep -1.6 01:53:05 10° WNW 01:55:47 23° NNW 01:55:47 23° NNW visible
22 Sep -2.0 01:05:19 10° W 01:08:20 29° NNW 01:10:22 16° NNE visible
23 Sep -2.5 00:17:36 10° W 00:20:48 39° NNW 00:24:01 10° NE visible
23 Sep -1.2 01:55:50 10° NW 01:57:50 18° NNW 01:57:50 18° NNW visible
24 Sep -1.5 01:08:03 10° WNW 01:10:39 20° N 01:12:16 15° NNE visible
25 Sep -1.7 00:20:14 10° WNW 00:23:01 23° NNW 00:25:50 10° NE visible
25 Sep -1.0 01:58:15 10° NW 01:59:35 16° NNW 01:59:35 16° NNW visible
26 Sep -1.5 01:10:38 10° NW 01:13:01 18° N 01:13:55 16° NNE visible
27 Sep -1.5 00:22:54 10° NW 00:25:21 18° N 00:27:47 10° NE visible
27 Sep -0.8 02:00:13 10° NW 02:01:11 15° NNW 02:01:11 15° NNW visible
28 Sep -1.7 01:12:46 10° NW 01:15:21 20° N 01:15:29 20° NNE visible
29 Sep -1.6 00:25:13 10° NW 00:27:40 18° N 00:29:47 11° NE visible
29 Sep -0.7 02:01:57 10° NW 02:02:44 15° NW 02:02:44 15° NW visible
